C/2017 K2 ( PanSTARRS )

Japanese version
Home page
Updated on February 13, 2018

---------------------------------------------------------------------

* Profile

Discovery Date May 21, 2017
Magnitude 20.8 mag
Discoverer Pan-STARRS 1 telescope (Haleakala)

* Pictures

* Orbital Elements

Epoch 2022 Dec. 7.0 TT = JDT 2459920.5
T 2022 Dec. 19.70719 TT                                 MPCW
q   1.7968968            (2000.0)            P               Q
z  -0.0004682      Peri.  236.19856     +0.01817740     +0.04924056
 +/-0.0000081      Node    88.23472     -0.18092460     +0.98246004
e   1.0008412      Incl.   87.56314     -0.98332897     -0.17985449
From 426 observations 2013 May 12-2018 Jan. 23, mean residual 0".5.

* Finding Charts

* Magnitudes Graph

        m1 = 1.0 + 5 log d + 10.0 log r

---------------------------------------------------------------------

The orbital elements are published on M.P.E.C. 2018-B155.
The charts are made with StellaNavigator Ver.10 (AstroArts).
The magnitudes graphs are made with Comet for Windows.

---------------------------------------------------------------------

Copyright(C) Seiichi Yoshida (comet@aerith.net). All rights reserved.